W4SNA-2 Weather Reports


Display with metric or nautical units.
time (UTC)temp
F
wind
direction
speed
MPH
gust
MPH
rain 1hr
in
rain 24hr
in
rain mn
in
humidity
%
barometer
mb
20181209185845 24 356 19.0 33.0 0.00 0.00 0.00 95 1013.9
20181209185344 24 353 20.0 33.0 0.00 0.00 0.00 95 1013.9
20181209184844 24 355 21.0 31.0 0.00 0.00 0.00 95 1013.9
20181209184344 24 356 20.0 31.0 0.00 0.00 0.00 95 1013.9
20181209183730 24 355 21.0 31.0 0.00 0.00 0.00 95 1013.9
20181209183233 24 357 22.0 31.0 0.00 0.00 0.00 95 1013.8
20181209182629 24 355 19.0 31.0 0.00 0.00 0.00 95 1013.8
20181209182127 24 352 20.0 31.0 0.00 0.00 0.00 95 1014.1
20181209181624 24 354 21.0 30.0 0.00 0.00 0.00 95 1014.1
20181209181124 23 357 21.0 30.0 0.00 0.00 0.00 95 1014.1
20181209180624 23 355 20.0 31.0 0.00 0.00 0.00 95 1014.1
20181209180124 23 355 20.0 31.0 0.00 0.00 0.00 95 1014.5
20181209175624 23 353 19.0 30.0 0.00 0.00 0.00 95 1014.5
20181209175124 23 353 22.0 30.0 0.00 0.00 0.00 95 1014.5
20181209174624 23 354 20.0 28.0 0.00 0.00 0.00 95 1014.7
20181209174124 23 352 20.0 30.0 0.00 0.00 0.00 95 1014.7
20181209173625 23 353 21.0 30.0 0.00 0.00 0.00 95 1014.7
20181209173124 23 351 21.0 28.0 0.00 0.00 0.00 95 1014.6
20181209172133 23 351 20.0 29.0 0.00 0.00 0.00 95 1014.6
20181209171632 23 4 19.0 30.0 0.00 0.00 0.00 95 1014.5
20181209171132 23 1 19.0 30.0 0.00 0.00 0.00 95 1014.5
20181209170632 23 1 19.0 27.0 0.00 0.00 0.00 95 1014.5
20181209165331 23 2 19.0 29.0 0.00 0.00 0.00 95 1014.8
20181209164831 23 360 19.0 30.0 0.00 0.00 0.00 95 1015.5
20181209164329 23 357 22.0 30.0 0.00 0.00 0.00 95 1015.5
20181209163827 23 2 21.0 29.0 0.00 0.00 0.00 95 1015.5
20181209163329 23 4 19.0 27.0 0.00 0.00 0.00 95 1015.9
20181209162606 23 354 18.0 30.0 0.00 0.00 0.00 95 1015.9
20181209162106 23 355 19.0 28.0 0.00 0.00 0.00 95 1016.6
20181209161606 23 358 19.0 28.0 0.00 0.00 0.00 95 1016.6
20181209160900 23 359 20.0 30.0 0.00 0.00 0.00 95 1016.6
20181209160400 23 360 19.0 27.0 0.00 0.00 0.00 95 1017.0
20181209155900 23 2 21.0 29.0 0.00 0.00 0.00 95 1017.0
20181209155400 23 3 20.0 29.0 0.00 0.00 0.00 95 1017.0
20181209154900 23 2 19.0 27.0 0.00 0.00 0.00 95 1017.9
20181209154016 22 2 16.0 26.0 0.00 0.00 0.00 94 1017.9
20181209153346 22 355 15.0 24.0 0.00 0.00 0.00 94 1017.5
20181209152701 22 357 16.0 26.0 0.00 0.00 0.00 95 1017.5
20181209152201 22 356 18.0 30.0 0.00 0.00 0.00 95 1017.5
20181209151658 23 356 17.0 30.0 0.00 0.00 0.00 95 1019.0
20181209151130 23 356 19.0 28.0 0.00 0.00 0.00 95 1019.0
20181209150300 0 2 18.0 28.0 0.00 0.00 0.00 1019.4
20181209145800 0 354 17.0 28.0 0.00 0.00 0.00 1019.4
20181209145039 0 359 16.0 26.0 0.00 0.00 0.00 1020.4
20181209144539 0 4 16.0 22.0 0.00 0.00 0.00 1020.4
20181209144039 0 354 14.0 24.0 0.00 0.00 0.00 1020.4
20181209143539 0 4 14.0 24.0 0.00 0.00 0.00 1020.3
20181209143039 0 360 12.0 20.0 0.00 0.00 0.00 1020.3
20181209142039 0 4 13.0 21.0 0.00 0.00 0.00 1019.7
20181209141539 0 8 12.0 22.0 0.00 0.00 0.00 1019.7
20181209141039 0 13 13.0 22.0 0.00 0.00 0.00 1019.7
20181209140539 0 7 14.0 26.0 0.00 0.00 0.00 1019.5
20181209140039 0 8 14.0 26.0 0.00 0.00 0.00 1019.5
20181209135543 0 4 14.0 26.0 0.00 0.00 0.00 1019.5
20181209135039 0 10 16.0 27.0 0.00 0.00 0.00 1019.4
20181209134542 0 360 16.0 27.0 0.00 0.00 0.00 1019.4
20181209134039 0 6 16.0 24.0 0.00 0.00 0.00 1019.4
20181209133539 0 5 17.0 25.0 0.00 0.00 0.00 1019.6
20181209133038 0 12 17.0 25.0 0.00 0.00 0.00 1019.6
20181209132541 0 10 15.0 26.0 0.00 0.00 0.00 1019.6
20181209132038 0 1 14.0 26.0 0.00 0.00 0.00 1019.8
20181209131538 0 359 15.0 26.0 0.00 0.00 0.00 1019.8
20181209131041 0 9 11.0 26.0 0.00 0.00 0.00 1019.8
20181209130538 0 15 12.0 21.0 0.00 0.00 0.00 1019.6
20181209130038 0 10 11.0 22.0 0.00 0.00 0.00 1019.6
20181209125549 0 13 11.0 22.0 0.00 0.00 0.00 1019.6
20181209125038 0 13 10.0 19.0 0.00 0.00 0.00 1019.9
20181209124538 0 14 12.0 19.0 0.00 0.00 0.00 1019.9
20181209123355 0 18 11.0 21.0 0.00 0.00 0.00 1020.3
20181209122858 0 25 11.0 27.0 0.00 0.00 0.00 1020.3
20181209122357 0 33 10.0 27.0 0.00 0.00 0.00 1020.3
20181209121858 0 31 13.0 26.0 0.00 0.00 0.00 1020.5
20181209121357 0 30 11.0 23.0 0.00 0.00 0.00 1020.5
20181209120857 0 20 11.0 20.0 0.00 0.00 0.00 1020.5
20181209120357 0 22 10.0 18.0 0.00 0.00 0.00 1020.8
20181209115855 0 20 8.0 19.0 0.00 0.00 0.00 1020.8
20181209115355 0 33 9.0 19.0 0.00 0.00 0.00 1020.8
20181209114854 0 43 9.0 25.0 0.00 0.00 0.00 1020.7
20181209114354 0 30 10.0 27.0 0.00 0.00 0.00 1020.7
20181209113854 0 43 15.0 27.0 0.00 0.00 0.00 1020.7
20181209112925 0 49 14.0 24.0 0.00 0.00 0.00 1020.9
20181209112425 0 44 10.0 19.0 0.00 0.00 0.00 1020.9
20181209111853 0 52 13.0 24.0 0.00 0.00 0.00 1021.4
20181209111353 0 50 8.0 21.0 0.00 0.00 0.00 1021.4
20181209110411 0 52 10.0 25.0 0.00 0.00 0.00 1021.3
20181209105911 0 50 10.0 18.0 0.00 0.00 0.00 1021.3
20181209105411 0 48 7.0 19.0 0.00 0.00 0.00 1021.3
20181209104911 0 38 9.0 19.0 0.00 0.00 0.00 1021.0
20181209104411 24 33 10.0 19.0 0.00 0.00 0.00 1021.0
20181209103911 24 28 10.0 22.0 0.00 0.00 0.00 95 1021.0
20181209103411 24 21 9.0 22.0 0.00 0.00 0.00 95 1021.2
20181209102911 25 21 9.0 20.0 0.00 0.00 0.00 95 1021.2
20181209102414 25 22 9.0 22.0 0.00 0.00 0.00 95 1021.2
20181209101911 25 30 10.0 22.0 0.00 0.00 0.00 95 1020.7
20181209101355 25 33 13.0 24.0 0.00 0.00 0.00 95 1020.7
20181209100746 25 18 9.0 23.0 0.00 0.00 0.00 95 1020.7
20181209095942 25 23 10.0 19.0 0.00 0.00 0.00 95 1021.8
20181209095050 25 27 10.0 18.0 0.00 0.00 0.00 95 1021.9
20181209094545 25 37 10.0 21.0 0.00 0.00 0.00 95 1021.9
20181209094050 25 26 9.0 21.0 0.00 0.00 0.00 95 1021.9
20181209093545 25 31 9.0 18.0 0.00 0.00 0.00 95 1022.1
20181209093047 25 30 9.0 18.0 0.00 0.00 0.00 95 1022.1
20181209092545 25 32 8.0 14.0 0.00 0.00 0.00 95 1022.1
20181209092057 25 37 8.0 16.0 0.00 0.00 0.00 95 1022.7
20181209091957 25 37 8.0 16.0 0.00 0.00 0.00 95 1022.7
20181209091502 25 27 7.0 16.0 0.00 0.00 0.00 95 1022.7
20181209090456 26 22 7.0 18.0 0.00 0.00 0.00 95 1023.1
20181209085956 26 29 7.0 18.0 0.00 0.00 0.00 95 1023.1
20181209085242 26 36 8.0 19.0 0.00 0.00 0.00 95 1023.1
20181209084742 26 27 9.0 19.0 0.00 0.00 0.00 95 1023.5
20181209084219 26 32 8.0 14.0 0.00 0.00 0.00 95 1023.5
20181209083720 26 29 7.0 14.0 0.00 0.00 0.00 95 1023.5
20181209083219 26 31 6.0 13.0 0.00 0.00 0.00 95 1024.1
20181209082720 26 36 5.0 13.0 0.00 0.00 0.00 95 1024.1
20181209081547 26 37 5.0 14.0 0.00 0.00 0.00 94 1024.2
20181209081047 26 58 7.0 14.0 0.00 0.00 0.00 94 1024.2
20181209080236 26 69 6.0 17.0 0.00 0.00 0.00 94 1024.3
20181209075236 26 64 8.0 17.0 0.00 0.00 0.00 94 1024.3
20181209074427 26 66 9.0 17.0 0.00 0.00 0.00 94 1024.6
20181209073926 26 58 7.0 18.0 0.00 0.00 0.00 93 1024.6
20181209073425 26 63 6.0 18.0 0.00 0.00 0.00 93 1024.8
20181209072924 26 62 8.0 16.0 0.00 0.00 0.00 93 1024.8
20181209072426 27 58 5.0 14.0 0.00 0.00 0.00 93 1024.8
20181209071924 27 61 8.0 19.0 0.00 0.00 0.00 92 1025.0
20181209071425 27 66 6.0 19.0 0.00 0.00 0.00 92 1025.0
20181209070924 27 67 7.0 15.0 0.00 0.00 0.00 92 1025.0
20181209065955 27 99 5.0 16.0 0.00 0.00 0.00 92 1026.0
20181209065454 27 90 8.0 14.0 0.00 0.00 0.00 92 1026.0
20181209065001 27 84 6.0 13.0 0.00 0.00 0.00 91 1026.0
20181209064254 27 88 6.0 13.0 0.00 0.00 0.00 91 1026.0
20181209063707 27 76 6.0 13.0 0.00 0.00 0.00 90 1026.0
20181209063213 28 100 5.0 12.0 0.00 0.00 0.00 90 1026.4
20181209062707 28 117 5.0 12.0 0.00 0.00 0.00 89 1026.4
20181209062207 28 135 2.0 11.0 0.00 0.00 0.00 89 1026.4
20181209061707 28 139 4.0 11.0 0.00 0.00 0.00 88 1026.6
20181209061207 29 142 3.0 15.0 0.00 0.00 0.00 86 1026.6
20181209060707 29 128 5.0 15.0 0.00 0.00 0.00 85 1026.6
20181209060208 29 134 4.0 15.0 0.00 0.00 0.00 84 1027.1
20181209055707 29 115 6.0 17.0 0.00 0.00 0.00 83 1027.1
20181209055207 29 130 4.0 17.0 0.00 0.00 0.00 82 1027.1
20181209054629 29 129 2.0 19.0 0.00 0.00 0.00 80 1026.7
20181209054130 29 104 7.0 19.0 0.00 0.00 0.00 79 1026.7
20181209053210 29 105 7.0 18.0 0.00 0.00 0.00 81 1026.7
20181209052710 29 88 8.0 18.0 0.00 0.00 0.00 80 1026.7
20181209052146 30 94 9.0 19.0 0.00 0.00 0.00 77 1026.7
20181209051646 30 100 8.0 14.0 0.00 0.00 0.00 76 1026.5
20181209051129 30 74 5.0 11.0 0.00 0.00 0.00 76 1026.5
20181209050626 30 56 5.0 10.0 0.00 0.00 0.00 77 1026.5
20181209045331 30 58 7.0 14.0 0.00 0.00 0.00 77 1027.0
20181209044831 30 72 6.0 14.0 0.00 0.00 0.00 76 1027.0
20181209044330 30 56 6.0 13.0 0.00 0.00 0.00 76 1027.0
20181209043423 30 53 6.0 14.0 0.00 0.00 0.00 75 1027.2
20181209042926 31 80 4.0 12.0 0.00 0.00 0.00 73 1027.2
20181209042424 31 50 4.0 12.0 0.00 0.00 0.00 73 1027.2
20181209041516 31 39 5.0 9.0 0.00 0.00 0.00 73 1027.6
20181209041011 31 39 4.0 9.0 0.00 0.00 0.00 72 1027.6
20181209040504 31 41 4.0 13.0 0.00 0.00 0.00 71 1027.6
20181209035959 31 82 5.0 13.0 0.00 0.00 0.00 71 1027.6
20181209034844 31 64 5.0 16.0 0.00 0.00 0.00 69 1028.1
20181209034346 32 71 4.0 11.0 0.00 0.00 0.00 68 1028.1
20181209033844 32 73 5.0 10.0 0.00 0.00 0.00 67 1028.1
20181209033346 32 79 2.0 14.0 0.00 0.00 0.00 67 1028.1
20181209032844 32 94 5.0 14.0 0.00 0.00 0.00 65 1028.1
20181209032346 32 108 3.0 9.0 0.00 0.00 0.00 67 1028.1
20181209031530 32 141 2.0 9.0 0.00 0.00 0.00 67 1027.7
20181209031030 32 126 4.0 9.0 0.00 0.00 0.00 67 1027.7
20181209030334 32 121 5.0 9.0 0.00 0.00 0.00 69 1027.8
20181209025332 32 118 3.0 10.0 0.00 0.00 0.00 69 1027.8
20181209024834 32 129 3.0 10.0 0.00 0.00 0.00 69 1028.1
20181209024332 32 106 5.0 11.0 0.00 0.00 0.00 68 1028.1
20181209023332 32 85 5.0 12.0 0.00 0.00 0.00 66 1028.1
20181209022833 32 74 5.0 14.0 0.00 0.00 0.00 67 1028.1
20181209021832 32 99 6.0 14.0 0.00 0.00 0.00 66 1028.1
20181209021332 32 87 4.0 12.0 0.00 0.00 0.00 66 1028.1
20181209020628 32 73 5.0 12.0 0.00 0.00 0.00 67 1028.1
20181209020134 32 88 4.0 11.0 0.00 0.00 0.00 67 1028.1
20181209015629 32 100 4.0 8.0 0.00 0.00 0.00 69 1028.1
20181209015128 32 95 3.0 10.0 0.00 0.00 0.00 68 1028.1
20181209014629 32 106 4.0 10.0 0.00 0.00 0.00 68 1028.1
20181209014128 32 100 4.0 8.0 0.00 0.00 0.00 68 1028.1
20181209013507 32 93 4.0 10.0 0.00 0.00 0.00 68 1028.1
20181209013007 32 97 5.0 10.0 0.00 0.00 0.00 67 1028.1
20181209012507 32 71 3.0 11.0 0.00 0.00 0.00 68 1028.1
20181209012006 32 75 4.0 11.0 0.00 0.00 0.00 67 1028.0
20181209011442 32 98 4.0 14.0 0.00 0.00 0.00 68 1028.0
20181209010942 32 89 3.0 10.0 0.00 0.00 0.00 69 1028.0
20181209010400 32 111 1.0 9.0 0.00 0.00 0.00 69 1028.1
20181209005901 32 104 1.0 8.0 0.00 0.00 0.00 70 1028.1
20181209004902 33 110 3.0 7.0 0.00 0.00 0.00 71 1028.1
20181209004400 33 0 0.0 10.0 0.00 0.00 0.00 71 1028.1
20181209003900 33 0 0.0 10.0 0.00 0.00 0.00 72 1028.1
20181209003400 33 142 3.0 9.0 0.00 0.00 0.00 72 1028.2
20181209002908 33 115 4.0 9.0 0.00 0.00 0.00 71 1028.2
20181209002403 33 98 2.0 5.0 0.00 0.00 0.00 71 1028.2
20181209001901 33 98 1.0 9.0 0.00 0.00 0.00 71 1028.2
20181209001401 33 102 5.0 9.0 0.00 0.00 0.00 71 1028.2
20181209000904 33 107 3.0 7.0 0.00 0.00 0.00 71 1028.2
20181209000401 33 109 3.0 7.0 0.00 0.00 0.00 71 1027.9
20181208235023 33 0 0.0 9.0 0.00 0.00 0.00 72 1027.7
20181208234523 33 145 2.0 9.0 0.00 0.00 0.00 72 1027.7
20181208233858 33 118 1.0 7.0 0.00 0.00 0.00 72 1027.7
20181208233355 33 147 1.0 7.0 0.00 0.00 0.00 72 1027.5
20181208232858 33 113 3.0 7.0 0.00 0.00 0.00 71 1027.5
20181208232355 33 0 0.0 5.0 0.00 0.00 0.00 72 1027.5
20181208231858 33 0 0.0 3.0 0.00 0.00 0.00 72 1027.4
20181208231355 33 0 0.0 8.0 0.00 0.00 0.00 72 1027.4
20181208230858 33 0 0.0 8.0 0.00 0.00 0.00 72 1027.4
20181208230357 33 116 2.0 5.0 0.00 0.00 0.00 72 1027.1
20181208225858 33 86 2.0 5.0 0.00 0.00 0.00 72 1027.1
20181208225357 33 19 2.0 5.0 0.00 0.00 0.00 72 1027.1
20181208224855 33 0 0.0 4.0 0.00 0.00 0.00 71 1026.8
20181208224401 33 132 1.0 3.0 0.00 0.00 0.00 71 1026.8
20181208223859 34 0 0.0 3.0 0.00 0.00 0.00 72 1026.8
20181208223357 34 0 0.0 4.0 0.00 0.00 0.00 71 1026.8
20181208222859 34 0 0.0 4.0 0.00 0.00 0.00 70 1026.8
20181208222204 34 0 0.0 5.0 0.00 0.00 0.00 70 1026.8
20181208221057 34 107 1.0 8.0 0.00 0.00 0.00 70 1027.3
20181208220552 34 67 1.0 7.0 0.00 0.00 0.00 70 1027.6
20181208220050 34 26 2.0 5.0 0.00 0.00 0.00 70 1027.6
20181208215550 34 26 1.0 5.0 0.00 0.00 0.00 70 1027.6
20181208215100 34 25 2.0 5.0 0.00 0.00 0.00 70 1027.8
20181208214550 34 25 2.0 5.0 0.00 0.00 0.00 70 1027.8
20181208214051 34 25 2.0 6.0 0.00 0.00 0.00 70 1027.8
20181208213551 34 344 2.0 6.0 0.00 0.00 0.00 70 1027.9
20181208213100 34 358 3.0 6.0 0.00 0.00 0.00 70 1027.9
20181208212551 34 37 3.0 5.0 0.00 0.00 0.00 70 1027.9
20181208212050 34 50 2.0 5.0 0.00 0.00 0.00 70 1027.9
20181208211551 35 56 1.0 4.0 0.00 0.00 0.00 69 1027.9
20181208211105 35 0 0.0 3.0 0.00 0.00 0.00 70 1027.9
20181208210553 35 0 0.0 3.0 0.00 0.00 0.00 70 1027.7
20181208210051 35 0 0.0 2.0 0.00 0.00 0.00 70 1027.7
20181208205551 35 125 1.0 2.0 0.00 0.00 0.00 70 1027.7
20181208204551 36 0 0.0 4.0 0.00 0.00 0.00 70 1027.4
20181208204051 36 0 0.0 5.0 0.00 0.00 0.00 69 1027.4
20181208203554 36 0 0.0 5.0 0.00 0.00 0.00 69 1027.1
20181208203059 36 0 0.0 5.0 0.00 0.00 0.00 70 1027.1
20181208202551 36 0 0.0 6.0 0.00 0.00 0.00 69 1027.1
20181208202053 36 91 1.0 6.0 0.00 0.00 0.00 68 1027.3
20181208201555 36 0 0.0 5.0 0.00 0.00 0.00 68 1027.3
20181208201100 36 81 2.0 5.0 0.00 0.00 0.00 67 1027.3
20181208200551 36 0 0.0 7.0 0.00 0.00 0.00 67 1027.3
20181208200051 36 57 1.0 7.0 0.00 0.00 0.00 66 1027.3
20181208195551 37 88 1.0 6.0 0.00 0.00 0.00 66 1027.3
20181208195051 37 0 0.0 3.0 0.00 0.00 0.00 67 1027.5
20181208194551 37 0 0.0 2.0 0.00 0.00 0.00 67 1027.5
20181208194051 37 0 0.0 2.0 0.00 0.00 0.00 68 1027.5
20181208193551 37 0 0.0 2.0 0.00 0.00 0.00 67 1027.6
20181208193051 37 0 0.0 0.0 0.00 0.00 0.00 68 1027.6
20181208192551 37 0 0.0 0.0 0.00 0.00 0.00 67 1027.6
20181208192051 37 0 0.0 0.0 0.00 0.00 0.00 68 1027.7
20181208191550 37 0 0.0 4.0 0.00 0.00 0.00 68 1027.7
20181208191100 37 0 0.0 4.0 0.00 0.00 0.00 67 1027.7
20181208190430 37 0 0.0 4.0 0.00 0.00 0.00 69 1027.8